Location: Trois-Rivi�res
(46.3500°N, 72.5500°W)
Time: 21:00:58
(UTC-04:00)

Daily predictions for brighter satellites

Satellite Brightness Start Highest point End
(mag) Time Altitude Azimuth Time Altitude Azimuth Time Altitude Azimuth
Meteor 1-11 Rocket 3.9 20:01:55 10° SSW 20:07:30 82° W 20:13:04 10° N
Meteor 2-15 4.5 20:04:40 10° N 20:10:43 65° ENE 20:16:43 10° SSE
EO 1 Delta rocket 4.2 20:08:56 10° NNE 20:13:24 47° E 20:18:16 10° S
Cosmos 1892 Rocket 3.6 20:09:58 10° N 20:14:27 77° E 20:18:57 10° SSE
NOSS 3-4 (A) 3.9 20:07:30 10° NW 20:14:29 83° NE 20:21:54 10° SE
NOSS 3-4 (C) 3.9 20:07:36 10° NW 20:14:36 82° NE 20:22:00 10° SE
H-2A R/B 3.7 20:13:04 10° ESE 20:15:48 18° ENE 20:18:34 10° NNE
Cosmos 1626 Rocket 4.5 20:12:26 10° N 20:16:22 30° ENE 20:20:15 10° SE
Okean 2 3.4 20:13:04 10° N 20:17:16 71° E 20:21:24 10° SSE
SPOT 5 4.4 20:14:09 10° ESE 20:17:42 20° ENE 20:21:10 10° NNE
BREEZE-M DEB (TANK) 3.5 20:15:09 10° WNW 20:17:57 58° NNE 20:25:20 10° E
Cosmos 1025 Rocket 3.7 20:15:41 10° NNW 20:20:00 59° W 20:24:16 10° S
Cosmos 2219 4.5 20:15:26 10° NW 20:20:42 42° WSW 20:25:57 10° S
Cosmos 1455 Rocket 3.2 20:19:16 10° S 20:23:26 51° E 20:27:41 10° NNE
Cosmos 1602 Rocket 4.3 20:20:11 10° N 20:24:21 36° ENE 20:28:28 10° SE
Cosmos 1975 3.9 20:22:23 10° SE 20:25:49 26° E 20:29:16 10° NNE
Cosmos 1656 Rocket 4.4 20:21:57 10° SW 20:27:28 59° WNW 20:32:56 10° NNE
Cosmos 1570 Rocket 4.1 20:24:33 10° S 20:29:43 56° ESE 20:34:53 10° NNE
Meteor 2-4 Rocket 4.4 20:26:53 10° NNW 20:32:38 62° W 20:38:26 10° S
Cosmos 1461 2.8 20:29:18 10° NNW 20:33:26 75° NE 20:37:13 11° SE
Resurs 01 Rocket 3.8 20:30:25 10° SSW 20:34:14 28° W 20:38:04 10° NW
Lacrosse 5 rocket 1.2 20:30:50 10° NW 20:34:35 62° NE 20:37:38 14° ESE
Cosmos 1934 Rocket 4.0 20:28:54 10° S 20:35:01 81° E 20:41:16 10° N
Envisat 3.5 20:31:23 10° SE 20:36:06 41° ENE 20:40:52 10° N
Cosmos 1315 Rocket 4.3 20:33:45 10° SW 20:37:33 41° WNW 20:41:26 10° N
YAOGAN 6 4.5 20:37:43 12° E 20:39:32 16° ENE 20:41:54 10° NNE
Cosmos 2278 3.8 20:35:47 10° S 20:41:17 55° ESE 20:46:51 10° NE
Cosmos 1697 Rocket 3.8 20:37:47 10° SSE 20:41:57 22° E 20:46:07 10° NE
Tiangong 1 1.7 20:40:03 10° WSW 20:42:56 36° S 20:44:50 18° ESE
DELTA 2 R/B (1) 4.2 20:39:40 10° WSW 20:44:53 42° S 20:49:03 15° ESE
CZ-4 DEB 2.7 20:42:08 10° SSE 20:45:15 66° ENE 20:48:23 10° N
NOSS 7 (E) 4.5 20:44:15 10° SSW 20:47:34 50° SE 20:50:55 10° NE
USA 186 2.9 20:46:31 10° S 20:49:29 41° W 20:52:20 10° NNW
H-2A R/B 4.0 20:47:37 10° S 20:51:19 43° W 20:55:05 10° NNW
OTV 4 2.5 20:49:31 10° SW 20:51:24 16° S 20:52:22 14° SSE
Cosmos 2084 3.9 20:50:15 10° NNW 20:54:06 44° NE 20:56:46 19° ESE
Cosmos 2369 3.7 20:48:36 10° S 20:54:10 62° ESE 20:59:48 10° NNE
Iridium 4 Rocket 3.4 20:48:57 10° N 20:54:15 66° E 20:59:02 10° SSE
Cosmos 220 Rocket 3.9 20:51:28 10° NNW 20:55:43 66° ENE 20:58:52 17° SSE
ATLAS CENTAUR R/B 3.8 20:51:37 10° WSW 20:56:07 32° NW 21:00:29 10° NNE
Cosmos 1939 Rocket 3.0 20:52:33 12° SSE 20:56:15 64° ENE 21:00:23 10° N
Cosmos 1544 Rocket 4.5 20:52:50 10° SSW 20:57:07 52° WNW 21:01:27 10° N
SJ-11-01 4.3 20:58:14 10° SSE 21:02:57 83° WSW 21:07:39 10° NNW
Terra 3.9 21:01:27 10° ENE 21:03:08 12° NE 21:04:48 10° NE
Cosmos 1980 Rocket 3.4 21:02:28 19° ESE 21:03:36 20° E 21:07:36 10° NE
ARGOS 4.1 21:08:00 20° ESE 21:10:46 32° ENE 21:15:31 10° N
Cosmos 1898 Rocket 3.6 21:05:47 10° NNW 21:11:07 67° ENE 21:14:34 22° SE
NOSS 2-1 (D) 4.4 21:07:17 10° WSW 21:11:10 50° NW 21:15:46 10° NNE
NOSS 2-1 (C) 4.4 21:08:18 10° WSW 21:12:11 51° NW 21:16:48 10° NNE
ERS-1 Rocket 3.1 21:07:48 10° S 21:12:50 75° WSW 21:17:52 10° NNW
Cosmos 2173 Rocket 4.3 21:09:21 11° SSE 21:15:14 49° E 21:21:18 10° NNE
Cosmos 1605 Rocket 4.3 21:11:44 10° SSW 21:18:03 70° W 21:24:20 10° N
Cosmos 2061 Rocket 4.1 21:15:45 12° SSE 21:21:30 54° E 21:27:35 10° NNE
RESURS DK-1 2.8 21:17:50 10° NNW 21:21:52 47° ENE 21:23:22 32° ESE
Cosmos 2100 Rocket 4.0 21:17:41 10° S 21:23:52 61° E 21:30:01 10° NNE
Cosmos 1763 Rocket 4.5 21:24:54 25° E 21:24:55 25° E 21:29:00 10° NE
Cosmos 1726 Rocket 4.4 21:26:11 29° E 21:26:34 29° E 21:30:22 10° NNE
Cosmos 1666 4.5 21:27:41 18° ENE 21:27:41 18° ENE 21:29:28 10° NE
Cosmos 2227 Rocket 3.2 21:21:51 10° NW 21:27:12 44° WSW 21:32:23 11° S
Cosmos 2263 Rocket 4.1 21:26:40 10° N 21:30:14 17° NE 21:33:00 12° ENE
MetOp-B 4.1 21:28:49 25° SSE 21:31:57 72° ENE 21:37:18 10° N
Cosmos 2322 Rocket 4.2 21:36:47 11° ENE 21:36:47 11° ENE 21:37:09 10° ENE
Cosmos 468 Rocket 3.9 21:30:14 10° S 21:35:16 61° ESE 21:40:21 10° NNE
Cosmos 1825 Rocket 3.5 21:32:13 10° N 21:36:39 69° E 21:38:16 38° SSE
Cosmos 1500 3.2 21:34:20 17° SSW 21:37:10 76° W 21:40:58 10° N
BREEZE-M DEB (TANK) 3.8 21:28:31 10° SW 21:40:51 52° SSE 21:42:56 32° ESE
Cosmos 1814 Rocket 4.0 21:37:53 15° S 21:42:17 60° ESE 21:47:31 10° NNE
Cosmos 1656 3.6 21:37:04 10° SSW 21:42:42 84° ESE 21:48:18 10° NNE
Cosmos 972 Rocket 4.4 21:37:13 10° NNW 21:42:59 88° WSW 21:46:40 27° SSE
USA 245 4.5 21:39:43 29° SSE 21:42:59 70° ENE 21:49:20 10° N
Cosmos 2297 Rocket 3.1 21:37:43 10° NW 21:43:06 45° WSW 21:47:08 17° S
Cosmos 2227 4.5 21:38:18 10° NNW 21:43:58 55° ENE 21:46:09 35° ESE
Cosmos 841 Rocket 4.2 21:44:37 33° E 21:44:37 33° E 21:49:10 10° NE
Cosmos 1953 Rocket 3.6 21:40:29 10° N 21:44:53 62° ENE 21:45:59 46° SE
USA 215 3.3 21:42:02 28° ESE 21:45:45 73° NNE 21:52:17 10° NW
Lacrosse 5 1.8 21:44:54 10° NW 21:50:00 89° SW 21:51:36 45° SE
Cosmos 1340 2.5 21:47:14 10° N 21:51:02 80° ENE 21:51:29 66° SE
H-2A R/B 2.7 21:49:23 25° SSW 21:51:28 49° W 21:55:30 10° NNW
deb Chang Zheng 4 3.9 21:48:48 10° N 21:53:15 70° WNW 21:57:05 14° SSW
SPOT 5 3.3 21:52:32 26° S 21:55:22 62° WSW 22:00:14 10° NNW
Cosmos 1725 Rocket 4.1 21:57:36 39° SE 21:59:31 52° E 22:05:33 10° NNE
Cosmos 1758 Rocket 3.4 21:59:48 10° N 22:04:13 84° E 22:04:48 66° SSE
Cosmos 1459 Rocket 4.1 21:59:01 12° SSW 22:04:39 73° W 22:10:46 10° N
Cosmos 1743 3.1 22:06:26 41° SW 22:07:34 62° W 22:11:29 10° N
BREEZE-M DEB (TANK) 4.2 21:46:59 10° WNW 22:09:51 86° NNE 22:12:42 37° ESE
H-2A R/B 2.1 22:10:13 49° E 22:10:50 53° ENE 22:15:39 10° N
YAOGAN 6 3.6 22:12:12 37° SW 22:12:47 41° W 22:16:20 10° NNW
Lacrosse 5 rocket 3.1 22:10:51 10° W 22:13:22 18° SW 22:13:22 18° SW
GEOS 3 Rocket 3.5 22:09:51 10° NE 22:14:56 58° SE 22:15:08 57° SE
Cosmos 2228 3.7 22:16:12 41° NE 22:16:12 41° NE 22:19:23 10° NNE
Cosmos 2098 Rocket 4.0 22:14:26 34° S 22:17:48 79° E 22:23:49 10° N
DELTA 2 DEB (DPAF) 4.2 22:18:49 61° ENE 22:18:49 61° ENE 22:23:14 10° N
Tiangong 1 3.8 22:16:15 10° WSW 22:16:48 14° WSW 22:16:48 14° WSW
Cosmos 1937 Rocket 4.3 22:14:09 10° NNW 22:19:11 47° WSW 22:21:02 33° SSW
IGS 5A 4.2 22:22:42 42° NE 22:22:42 42° NE 22:26:06 10° N
Cosmos 1842 3.4 22:19:06 10° NNW 22:22:45 70° WNW 22:22:45 70° WNW
Landsat 7 3.6 22:24:23 75° ESE 22:24:42 80° ENE 22:29:29 10° NNW
Cosmos 1697 Rocket 3.1 22:19:48 10° SW 22:25:24 63° WNW 22:31:02 10° NNE
Cosmos 2058 Rocket 3.0 22:25:44 85° SSW 22:25:51 89° W 22:30:24 10° N
Cosmos 1802 Rocket 4.5 22:20:59 15° SSW 22:26:18 61° WNW 22:32:41 10° N
CZ-4 R/B 3.7 22:21:58 10° NNE 22:26:35 73° E 22:26:35 73° E
SL-16 R/B 3.4 22:29:58 28° ENE 22:29:58 28° ENE 22:33:14 10° NE
Cosmos 2233 Rocket 4.1 22:27:57 52° ESE 22:28:33 54° E 22:34:35 10° NNE
SPOT 1/Viking Rocket 4.1 22:28:06 39° SSW 22:29:39 54° W 22:34:47 10° NNW
ASTEX 1 4.3 22:25:47 10° N 22:30:36 48° WNW 22:33:04 26° SW
Meteor 2-17 Rocket 4.4 22:31:56 57° ESE 22:32:27 59° E 22:38:23 10° NNE
Meteor 2-5 Rocket 4.2 22:28:19 10° N 22:34:04 48° ENE 22:34:30 47° E
SL-08 RB Rocket 4.1 22:35:12 53° SW 22:35:42 57° W 22:40:19 10° NNW
Meteor 1-15 Rocket 4.2 22:35:41 58° S 22:36:56 85° E 22:42:52 10° NNE
Terra 1.8 22:40:15 78° NE 22:40:15 78° NE 22:44:52 10° NNW
CZ-4B R/B 3.6 22:38:32 10° N 22:43:14 64° WNW 22:44:02 54° WSW
Cosmos 836 Rocket 4.5 22:45:15 73° ENE 22:45:15 73° ENE 22:50:13 10° NNE
Cosmos 1980 Rocket 2.4 22:44:08 30° SW 22:47:01 69° WNW 22:52:44 10° NNE
Cosmos 2360 Rocket 4.3 22:50:53 14° ENE 22:50:53 14° ENE 22:51:59 10° NE
CARTOSAT-1 4.0 22:50:34 61° NNW 22:50:34 61° NNW 22:54:14 10° NNW
ARGOS 4.1 22:49:31 34° SW 22:50:55 39° W 22:55:58 10° NNW
Spot 4 4.0 22:54:42 69° NNE 22:54:42 69° NNE 22:58:58 10° NNW
Cosmos 1125 Rocket 3.6 22:54:14 10° NNW 22:59:15 67° W 22:59:15 67° W
Cosmos 1666 4.5 23:02:39 29° WNW 23:02:39 29° WNW 23:05:35 10° N
Meteor 1-24 Rocket 4.2 22:59:51 10° N 23:05:38 51° ENE 23:05:38 51° ENE
Cosmos 1763 Rocket 4.3 23:04:52 35° WSW 23:06:27 46° WNW 23:11:21 10° NNE
Cosmos 1464 Rocket 4.3 23:09:13 51° ENE 23:09:13 51° ENE 23:14:55 10° NNE
DMSP B5D2-2 4.2 23:08:53 10° N 23:13:59 73° NW 23:13:59 73° NW
Cosmos 2263 Rocket 2.2 23:09:30 10° NNW 23:14:41 73° NNE 23:14:41 73° NNE
Cosmos 2322 Rocket 2.3 23:18:34 65° NNE 23:18:34 65° NNE 23:23:21 10° NNE
USA 215 3.9 23:29:23 39° SW 23:29:23 39° SW 23:35:08 10° WNW
Lacrosse 5 4.1 23:28:58 10° W 23:30:48 16° W 23:30:48 16° W
GP-B 4.4 23:28:39 10° N 23:31:51 38° NW 23:31:51 38° NW
H-2A R/B 3.9 23:50:51 21° W 23:50:51 21° W 23:54:17 10° NW
Cosmos 540 Rocket 4.3 23:54:21 46° NW 23:54:21 46° NW 23:58:37 10° NNE
ALOS 2 4.3 23:56:06 30° N 23:56:06 30° N 23:58:27 10° N
Lacrosse 4 Rocket 4.3 23:59:37 11° NE 23:59:37 11° NE 23:59:47 10° NE
